CSS (WENTIAN)

导读

CSS(WENTIAN)是中国天宫空间站的问天实验舱,于2022年7月24日成功发射。作为中国空间站首个科学实验舱,它是国家太空实验室的核心组成部分,具备生命科学、材料科学、微重力物理等多领域研究能力,还为航天员提供更充裕的驻留空间,大幅提升了空间站供电、出舱活动能力,标志着中国载人航天工程取得关键进展,为空间科学研究和长期在轨驻留奠定重要基础。

Basic Information
目录编号:
53239
目录名称:
CSS (WENTIAN)
国际标识:
2022-085A
轨道中心:
EARTH
卫星名称:
CSS (WENTIAN)
卫星全名:
--
卫星状态:
在轨 (已飞行1510 天)
发射日期:
2022-07-24 UTC
国别 :
中国 (CN)
星等 :
--
Orbit Information
数据来源 国际轨道数据
星历时间: 2026-09-11T06:26:43+0800
7小时前
查看轨道信息
半长轴: 6766.387km
偏心率: 0.0002582
轨道倾角: 41.468°
近地点辐角 270.169°
升交点赤经 161.419°
平近点角 89.886°
近地点: 386.502km
远地点: 389.998km
周期: 92.320分钟
每日圈数: 15.597953
Detailed Information
使用方式:
暂无
2D Orbit Map
3D Orbit Map
Orbit Altitude Analysis Chart
Orbit Inclination Analysis Chart
Orbit Comprehensive Analysis Chart
View Comprehensive Chart
Conjunction Data List
Event ID Objects TCA Miss Dist (km) Collision Risk Probability Collision Risk Index (CRI) Action
CDM_260911-041104-827405-323921
2026-09-11T
04:11:25+0000
0.287 km
中距离
1.111474E-4 高风险 0.76
CDM_260911-054305-323905-421621
2026-09-11T
05:43:40+0000
0.337 km
远距离
7.555723E-5 中风险 0.73
CDM_260911-054304-827405-323921
2026-09-11T
05:43:40+0000
0.337 km
远距离
7.555723E-5 中风险 0.73
CDM_260911-071505-323905-421621
2026-09-11T
07:15:55+0000
0.389 km
远距离
5.160356E-5 中风险 0.69
CDM_260911-071504-827405-323921
2026-09-11T
07:15:55+0000
0.389 km
远距离
5.160356E-5 中风险 0.69
CDM_260911-084805-323905-421621
2026-09-11T
08:48:10+0000
0.443 km
远距离
3.548354E-5 中风险 0.66
CDM_260911-084804-827405-323921
2026-09-11T
08:48:10+0000
0.443 km
远距离
3.548354E-5 中风险 0.66
CDM_260911-102005-323905-421621
2026-09-11T
10:20:26+0000
0.501 km
远距离
2.461195E-5 中风险 0.63
CDM_260911-102004-827405-323921
2026-09-11T
10:20:26+0000
0.501 km
远距离
2.461195E-5 中风险 0.63
CDM_260911-115205-323905-421621
2026-09-11T
11:52:42+0000
0.560 km
远距离
1.724936E-5 中风险 0.6
Miss Distance Evolution Trend with All Objects
Collision Probability Evolution Trend with All Objects